Location: Amsterdam
(30.7274°N, 84.4357°W)
Time: 18:40:44
(UTC+00:00)

Altair - Pass Details

Date: 06 August 2024
Orbit: 1501 x 1682 km, 47.2° (Epoch: 07 September)

Event Time Altitude Azimuth Distance (km) Brightness Sun altitude
Rises 20:09:51 0° 268° (W) 4,851 10.7 53.8°
Reaches altitude 10° 20:13:25 10° 276° (W) 3,840 10.3 53.0°
Maximum altitude 20:22:10 36° 341° (NNW) 2,307 9.0 51.2°
Drops below altitude 10° 20:30:40 10° 45° (NE) 3,715 9.3 49.4°
Sets 20:34:04 0° 54° (NE) 4,677 9.7 48.7°
